FENGYUN 3C

Last updated on Thu Nov 21 2024 00:02:19 GMT+0000 (Coordinated Universal Time)

1 39260U 13052A 24325.58120427 .00000229 00000+0 13598-3 0 9997 2 39260 98.4390 316.9848 0010110 232.5278 127.4978 14.16347328577406
UTC large
Height (km)
Speed (km/s)
/
Latitude / Longitude
Inclination (degrees)
Orbital Period (minutes)
Azimuth
Elevation
Range (km)
Doppler Factor

Next 0 passes for location: London (51.5072 / 0.1276)

Sorry there are no passes over London.